352  
ASUS46 KSGX 232211  
RWRSGX  
 
SAN DIEGO HOURLY WEATHER ROUNDUP  
NATIONAL WEATHER SERVICE SAN DIEGO CA  
300 PM PDT SUN SEP 23 2018  
 
NOTE: "FAIR" INDICATES FEW OR NO CLOUDS BELOW 12,000 FEET WITH NO  
SIGNIFICANT WEATHER AND/OR S TO VISIBILITY
.  
 
CAZ042-043-060-061-PZZ750-775-232300-  
 
GREATER SAN DIEGO AREA  
 
CITY SKY/WX TMP DP RH WIND PRES REMARKS
 
SAN DIEGO AP PTSUNNY 73 62 68 W9 29.88F  
NATIONAL CITY N/A 73 65 76 SW3 29.86F  
CHULA VISTA N/A 73 65 77 W12 29.78F  
IMPERIAL BEACH CLOUDY 70 61 73 W10 29.87F  
BROWN FIELD MOSUNNY 74 62 66 VRB7 29.86F  
MIRAMAR MCAS MOSUNNY 78 60 53 W10 29.86F  
MONTGOMERY FLD MOSUNNY 74 61 63 SW8 29.86F  
GILLESPIE FLD SUNNY 81 63 54 W9 29.85F  
 

 
 
NORTH SAN DIEGO COUNTY  
 
CITY SKY/WX TMP DP RH WIND PRES REMARKS
 
CAMP PENDLETON SUNNY 75 63 66 SW9 29.84F  
OCEANSIDE AP SUNNY 73 61 65 W10 29.85F  
OCEANSIDE HBR N/A 70 64 81 SW5 29.88F  
VISTA N/A 74 65 72 SW6 29.82F  
CARLSBAD MOSUNNY 71 62 73 SW8 29.85F  
DEL MAR N/A 80 66 62 W3 29.87F  
LA JOLLA SCRIP N/A 68 64 86 W5 29.86F  
FALLBROOK FAIR 77 61 57 SW10 29.86F  
ESCONDIDO N/A 79 65 62 W10 29.84F  
SAN MARCOS N/A 76 65 67 NW5 29.88F  
POWAY N/A 81 65 58 W5 29.85F  
 

 
 
EAST SAN DIEGO COUNTY  
 
CITY SKY/WX TMP DP RH WIND PRES REMARKS
 
RAMONA SUNNY 83 61 47 W12 29.86F  
LA MESA N/A 76 64 65 SW5 29.79F  
JAMUL N/A 80 65 60 CALM 29.83F  
CAMPO N/A 88 31 13 SW17 29.86F  
 

 
 
ORANGE COUNTY AND THE LOS ANGELES BASIN  
 
CITY SKY/WX TMP DP RH WIND PRES REMARKS
 
JOHN WAYNE AP MOSUNNY 75 60 59 W7 29.84F  
LAKE FOREST FR N/A 84 60 43 W1 29.72F  
HUNTINGTON BCH N/A 73 65 77 W9 29.85F  
LOS ALAMITOS MOSUNNY 76 61 58 SW13 29.84F  
FULLERTON MOSUNNY 80 60 50 SW8 29.83F  
LONG BEACH SUNNY 78 60 53 S9 29.84F  
L.A. AP MOSUNNY 71 60 68 W14 29.86F  
L.A. DOWNTOWN SUNNY 76 60 57 VRB5 29.84F  
 

 
 
THE INLAND EMPIRE  
 
CITY SKY/WX TMP DP RH WIND PRES REMARKS
 
CORONA SUNNY 86 59 39 NW15 29.82F  
CHINO MOSUNNY 90 54 29 W12 29.83F  
ONTARIO MOSUNNY 87 55 33 W14 29.83F  
RIVERSIDE AP SUNNY 87 54 32 NW9G16 29.83F  
MORENO VALLEY N/A 92 59 32 NW7 27.97F  
MARCH ARB SUNNY 89 54 30 NW13 29.85F  
HORSETHIEF CYN N/A 87 52 30 NE2 29.79F  
PERRIS N/A 88 55 32 NW8 N/A  
HEMET EAST N/A 91 46 20 W3 29.73F  
FRENCH VALLEY FAIR 86 59 39 SW10 29.85F  
TEMECULA N/A 86 62 43 SW6 29.86F  
 

 
 
SAN BERNARDINO AND RIVERSIDE COUNTY MOUNTAINS  
 
CITY SKY/WX TMP DP RH WIND PRES REMARKS
 
BIG BEAR AP PTSUNNY 72 36 26 S9G17 30.14F  
 

 
 
SOUTHERN DESERT INCLUDING THE COACHELLA VALLEY  
 
CITY SKY/WX TMP DP RH WIND PRES REMARKS
 
PALM SPRINGS SUNNY 107 48 14 NW18G25 29.71F HX 103  
THOUSAND PALMS N/A 104 52 17 W8 29.65F HX 102  
PALM DESERT N/A 107 52 16 NW2 31.03S HX 105  
THERMAL SUNNY 110 47 12 SE10 29.62F HX 106  
BORREGO AP FAIR 102 41 12 VRB7G15 29.69F HX 97  
BLYTHE SUNNY 104 48 15 SE10 29.68F HX 100  
IMPERIAL AP SUNNY 106 46 13 VRB5 29.64F HX 102  
EL CENTRO NAS MOSUNNY 107 42 11 W13G22 29.67F HX 102  
YUMA AZ SUNNY 104 53 18 CALM 29.67F HX 102  
MEXICALI SUNNY 106 43 11 SE5 29.67F HX 101  
 

 
 
UPPER DESERT  
 
CITY SKY/WX TMP DP RH WIND PRES REMARKS
 
VICTORVILLE AP SUNNY N/A N/A N/A SE15G29 29.88F  
HESPERIA N/A 88 50 27 SW12 29.75F  
APPLE VALLEY N/A 91 50 24 N10 29.77F  
PALMDALE SUNNY 91 48 22 W23G31 29.87F  
LANCASTER SUNNY 91 47 21 SW16 29.87F  
EDWARDS AFB MOSUNNY 94 41 15 SW20G28 29.83  
DAGGETT MOSUNNY 97 41 14 W8G16 29.80F  
29 PALMS N SUNNY 98 38 12 MISG 29.86F  
NEEDLES SUNNY 106 42 11 W9G20 29.71F HX 101  
 

 
 
REGIONAL REPORTS  
 
CITY SKY/WX TMP DP RH WIND PRES REMARKS
 
SANTA BARBARA SUNNY 69 58 67 SW9 29.85F  
SANDBERG N/A N/A N/A N/A MISG 30.03F  
LAS VEGAS NV MOSUNNY 96 41 15 SW12G22 29.78F  
PHOENIX AZ MOSUNNY 102 38 11 S10 29.75F HX 96  
TIJUANA MOSUNNY 72 61 68 CALM 29.89  
 

 
 
OFFSHORE ISLANDS  
 
CITY SKY/WX TMP DP RH WIND PRES REMARKS
 
CATALINA ARPT SUNNY 67 58 72 SW9 29.90F  
SAN CLEMENTE I CLOUDY 64 58 80 W12 29.89F  
SAN NICOLAS IS FAIR 68 67 96 SW9 29.87F  
 

 
 
MARINE AND OFFSHORE BUOY REPORTS  
 
STATION/POSITION SKY/WX TEMP WIND PRES VSBY SWELL
 
AIR SEA DIR/SP/G HT/PER/DIR  
(F) (DEG/KT/KT) (MB) (MI) (FT/S/D)  
TANNER BANKS 61 64 1011.9F  
S CLEMENTE BASIN 63 68 280/ 10/ 12 1011.8F 2/200/14  
SAN NICOLAS IS. 63 N/A 2/190/14  
SO. S. ROSA ISLA 59 64 280/ 8/ 10 1011.6F 3/210/15  
W. S. BARBARA CH 1011.7F 3/190/14  
M. S. BARBARA CH 63 68 240/ 4/ 6 1011.7  
S. MONICA BASIN 65 71 270/ 8/ 10 1011.2  
S PEDRO CHANNEL 70 N/A 2/190/14  
CMP PENDLETON NS 70 N/A 2/220/13  
OCEANSIDE OFFSHR 70 N/A 2/210/14  
TORREY PINES OTR 71 N/A 2/210/15  
SAN DIEGO BAY 1011.1F  
IMPERIAL BEACH 66 N/A 2/240/14  
POINT LOMA SOUTH 70 N/A 2/210/14  
 

 
 
 
 
CLICK HERE TO GO TO PREVIOUS BULLETINS.

The Nexlab CA Page Main Text Page